Location: Juniper Campground
(35.7953°N, 106.2814°W)
Time: 03:58:03
(UTC-06:00)

ISS - Visible Passes

Search period start: 22 October 2018 00:00
Search period end: 01 November 2018 00:00
Orbit: 402 x 408 km, 51.6° (Epoch: 22 October)

Date Brightness Start Highest point End Pass type
(mag) Time Alt. Az. Time Alt. Az. Time Alt. Az.
25 Oct -1.0 06:02:55 10° S 06:05:13 18° SE 06:07:32 10° E visible
26 Oct -3.9 06:46:12 10° SW 06:49:27 72° NW 06:52:42 10° NE visible
27 Oct -3.1 05:55:55 26° SSW 05:57:27 51° SE 06:00:38 10° ENE visible
28 Oct -1.0 05:06:53 18° E 05:06:53 18° E 05:08:13 10° ENE visible
28 Oct -2.7 06:39:37 13° W 06:41:56 28° NW 06:44:49 10° NNE visible
29 Oct -3.3 05:50:20 46° N 05:50:20 46° N 05:53:00 10° NE visible
30 Oct -0.4 05:00:53 11° NE 05:00:53 11° NE 05:00:58 10° NE visible
30 Oct -1.8 06:33:35 13° NW 06:34:33 15° NNW 06:36:29 10° N visible
31 Oct -1.5 05:43:58 16° N 05:43:58 16° N 05:44:56 10° NNE visible
